FENGYUN 1C DEB, 32155

Orbit data source: Space-Track

FENGYUN 1C DEB, 32155 is space debris in SSO originally from a launch on Mon, 10 May 1999 UTC launched from the Taiyaun Space Center, China (TSC). Fengyun 1C debris stems from the Chinese weather satellite Fengyun-1C, which was intentionally destroyed by a Chinese anti-satellite missile in 2007. This event dramatically increased the amount of space debris, with thousands of trackable fragments posing hazards to satellites and human spaceflight. The Fengyun 1C debris cloud has become a focal point in discussions about space sustainability and the need for international regulations to prevent the creation of new debris.

Loading next visibility...
Identifier
32155, 1999-025CSZ
Orbit
SSO
Country
Flag of CNCN / PRC
Related business
Manufacturer
Unknown
Mission
Spacecraft
Bus & Motor
Unknown
Mass
Unknown
Launch date (UTC)
1999-05-10 (26 years ago)
Launch vehicle
Unknown
Launch site
Taiyaun Space Center, China (TSC)
Object type
Payload
Rocket body
Debris
Shape & HBR
Unknown shape, 0.1 m
Radar Cross Section
Small (<0.1 m²)

Expand to show TLE details & history
Last TLE update: 5 days ago

TLE from 5 days ago
0 FENGYUN 1C DEB
1 32155U 99025CSZ 25306.07665811  .00001974  00000-0  72172-3 0  9994
2 32155  98.9471 234.3573 0071058 359.6947   0.4181 14.32747524696405
Epoch: 2025-11-02T01:50Z
TLE epoch observation values (Epoch: 2025-11-02T01:50:23.260Z)
Latitude
-0.00002°
Longitude
165.16281°
Altitude
734.595 km
Speed
7.514 km/s
True Right ascension
15h 37m 25s
True Declination
0° 00' 00"
Sunlit
Object was in daylight at epoch
Visualization orbit readout
Latitude
Unknown
Longitude
Unknown
Altitude
Unknown
Speed
Unknown
Apparent Right ascension
Unknown
Apparent Declination
Unknown
Sunlit
N/A
Visualization observer readout
Local Sidereal Time
11:25:48
Azimuth
Unknown
Elevation
Unknown
Doppler factor
Unknown
Orbital elements
Apogee altitude
830.577 km
Perigee altitude
728.852 km
Semi-major axis
7,157.852 km
Eccentricity
0.00711
Inclination
98.9471°
RAAN
234.3573°
Arg. of periapsis
359.6947°
True anomaly
0.4241°
Mean anomaly
0.4181°
Eccentric anomaly
0.42109°
Mean motion
3.58401 °/min
Orbital period
100.45 mins
BSTAR
0.00072172
Loading maneuver chart data...
Computing Atmospheric mass density...

Documentation

Showing up to 5 results
|